Powrót do katalogu

FREGAT R/B

AktywnyHEO
NORAD 44300·ROCKET BODY·🇷🇺 Russia

Wystrzelony May 27, 2019 z Plesetsk Cosmodrome

Loading…

Następne Przeloty (najbliższe 24 godziny)

TLE

ŚwieżeSource: Space-Track

Epoka: Sep 13, 2026, 22:50 UTC

1 44300U 19030B   26256.95187733  .00000019  00000-0  00000-0 0  9998
2 44300  64.3047 193.2307 0067976 135.3941 225.1517  2.09028613 55748

Śledź FREGAT R/B w czasie rzeczywistym z AllMySat

Download on the App Store